Home > Weather > Penza > Past weeks

Flag for Russia Weather for the Past 2 Weeks in Penza, Russia

Now
66 °F

Partly sunny.


Feels Like: 66 °F
Forecast: 47 / 68 °F
Wind: 10 mph from Northeast

Location: Saratov / Tsentralny

Current Time: May 6, 2016 at 12:38:50 PM

Latest Report: May 6, 2016 at 12:00 PM


Visibility: N/A

Pressure: 29.98 "Hg

Humidity: 49%

Dew Point: 46 °F

Location of PenzaLocation

Historic Weather in Penza — Graph

°F

Penza Temperature Yesterday

Maximum temperature yesterday: 66 °F (at 3:00 PM)
Minimum temperature yesterday: 48 °F (at 4:00 AM)
Average temperature yesterday: 58 °F

High & Low Weather Summary for the Past Weeks

 TemperatureHumidityPressure
High70 °F (Apr 26, 2:00 PM)100% (Apr 27, 12:00 AM)30.18 "Hg (Apr 27, 12:00 AM)
Low39 °F (Apr 23, 1:00 AM)30% (Apr 25, 3:00 PM)29.47 "Hg (Apr 21, 1:00 PM)
Average53 °F67%29.95 "Hg
* Reported Apr 21 11:00 AM — May 6 11:30 AM, Penza, Weather by CustomWeather, © 2016

Note: Actual official high and low records may vary slightly from our data, if they occured in-between our weather recording intervals... More about our weather records

Advertising

Penza Weather History for the Previous 24 Hours

Scroll right to see more
 ConditionsComfort  
Time TempWeatherWind HumidityBarometerVisibility
11:30 AM
Fri, May 6
63 °FSunny.6 mph59%29.98 "Hg10 mi
11:00 AM63 °FSunny.8 mph59%29.98 "Hg10 mi
10:30 AM61 °FSunny.6 mph63%29.98 "Hg10 mi
10:00 AM61 °FSunny.8 mph63%29.98 "Hg10 mi
9:30 AM57 °FSunny.8 mph72%29.98 "Hg10 mi
9:00 AM57 °FSunny.8 mph72%29.98 "Hg10 mi
8:30 AM54 °FSunny.6 mph77%29.98 "Hg10 mi
8:00 AM54 °FSunny.3 mph77%29.98 "Hg10 mi
7:30 AM52 °FSunny.3 mph82%29.98 "Hg10 mi
7:00 AM52 °FSunny.6 mph82%29.98 "Hg10 mi
6:30 AM50 °FSunny.6 mph82%29.98 "Hg10 mi
6:00 AM50 °FSunny.6 mph82%29.98 "Hg10 mi
5:30 AM48 °FSunny.6 mph76%29.95 "Hg10 mi
5:00 AM48 °FSunny.3 mph76%29.95 "Hg10 mi
4:30 AM48 °FSunny.3 mph71%29.95 "Hg10 mi
4:00 AM48 °FClear.3 mph71%29.95 "Hg10 mi
3:00 AM50 °FClear.3 mph82%29.95 "Hg10 mi
2:00 AM50 °FClear.3 mph76%29.95 "Hg10 mi
1:30 AM52 °FClear.3 mph77%29.95 "Hg10 mi
1:00 AM52 °FClear.3 mph77%29.95 "Hg10 mi
12:30 AM52 °FClear.1 mph72%29.95 "Hg10 mi
12:00 AM52 °FClear.1 mph72%29.95 "Hg10 mi
11:30 PM
Thu, May 5
52 °FClear.1 mph72%29.92 "Hg10 mi
11:00 PM52 °FClear.No wind72%29.92 "Hg10 mi
10:30 PM54 °FClear.No wind67%29.92 "Hg10 mi
10:00 PM54 °FClear.3 mph67%29.92 "Hg10 mi
9:30 PM59 °FClear.3 mph48%29.92 "Hg10 mi
9:00 PM59 °FClear.6 mph48%29.92 "Hg10 mi
8:30 PM61 °FClear.8 mph52%29.92 "Hg10 mi
8:00 PM61 °FClear.3 mph52%29.92 "Hg10 mi
7:30 PM63 °FClear.3 mph45%29.89 "Hg10 mi
7:00 PM63 °FPartly sunny.6 mph45%29.89 "HgN/A
6:30 PM64 °FPassing clouds.8 mph40%29.89 "HgN/A
6:00 PM64 °FPassing clouds.8 mph40%29.89 "HgN/A
5:30 PM64 °FPassing clouds.8 mph40%29.89 "HgN/A
5:00 PM64 °FSunny.8 mph40%29.89 "Hg10 mi
4:30 PM66 °FSunny.8 mph40%29.89 "Hg10 mi
4:00 PM66 °FSunny.8 mph40%29.89 "Hg10 mi
3:30 PM66 °FSunny.10 mph37%29.89 "Hg10 mi
3:00 PM66 °FSunny.10 mph37%29.89 "Hg10 mi
2:30 PM64 °FSunny.8 mph43%29.89 "Hg10 mi
2:00 PM64 °FSunny.8 mph43%29.89 "Hg10 mi
1:30 PM63 °FSunny.8 mph45%29.89 "Hg10 mi
1:00 PM63 °FSunny.8 mph45%29.89 "Hg10 mi
12:30 PM63 °FPartly sunny.8 mph45%29.89 "HgN/A
12:00 PM63 °FPartly sunny.6 mph45%29.89 "HgN/A
Weather by CustomWeather, © 2016

See weather overviewHow to use our weather pages